User: anonymous   Login
Location: Newark
(43.0000°N, 1.6781°W)
Time: 12:46:38
(UTC+00:00)
Language:

DOVE 4 - Orbit

View from above orbital plane
View from above orbital plane
View from above satellite
View from above satellite

Ground track
Ground track

The orbit data is extracted from the following two-line orbital elements,

1 39430U 13066Q   22338.09981392  .00001325  00000-0  24271-3 0  9994
2 39430  97.7957 235.5217 0146932 229.5452 129.2864 14.60685442481054
Epoch (UTC): 04 December 2022 02:23:43
Eccentricity: 0.0146932
inclination: 97.7957°
perigee height: 587 km
apogee height: 795 km
right ascension of ascending node: 235.5217°
argument of perigee: 229.5452°
revolutions per day: 14.60685442
mean anomaly at epoch: 129.2864°
orbit number at epoch: 48105

The dashed part of the orbit path shows where the satellite is in the earth's shadow,  

DLR